Location: Budapest
(47.4979°N, 19.0402°E)
Time: 13:41:58
(UTC+01:00)

N. Korean satellite - Pass Details

Date: 15 October 2017
Orbit: 461 x 513 km, 97.2° (Epoch: 17 December)

Event Time Altitude Azimuth Distance (km) Brightness Sun altitude
Rises 18:44:22 0° 169° (S) 2,539 10.1 -8.9°
Reaches altitude 10° 18:46:26 10° 171° (S) 1,655 9.2 -9.3°
Maximum altitude 18:49:59 77° 257° (WSW) 494 6.7 -9.9°
Drops below altitude 10° 18:53:31 10° 345° (NNW) 1,642 9.4 -10.5°
Sets 18:55:34 0° 347° (NNW) 2,518 10.4 -10.8°
